Location: Austin
(30.3000°N, 97.7500°W)
Time: 05:58:14
(UTC-05:00)

Cosmos 2026 Rocket - Pass Details

Date: 16 June 2025
Orbit: 937 x 1001 km, 82.9° (Epoch: 08 July)

Event Time Altitude Azimuth Distance (km) Brightness Sun altitude
Exits shadow 03:28:05 63° 295° (WNW) 1,096 4.1 -29.5°
Drops below altitude 10° 03:33:56 10° 358° (N) 2,727 7.0 -28.9°
Sets 03:36:28 0° 2° (N) 3,668 7.9 -28.6°
